Content
SEND FEEDBACK

Daily
Averages
Monthly
Summary
United States of America

ROSE CITY, TEXAS


Home > North America > United States > Texas
Elevation: 20 feet     Latitude: 30 05N     Longitude: 094 06W

WEATHER
 
SELECT A DAY
Number of Records: 68,727;   Date Range: 3/9/11 - 7/25/14
 
SHARE

PRINT THIS DATA

[ ← Previous Day ]
WEATHER ALMANAC - JANUARY 23, 2013
[ Next Day → ]
[ °C ]   °F
Weather ElementAverageHighLow
Temperature57.9 °F73.4 °F (2:15 pm)41 °F (6:35 am)
Dewpoint47.3 °F55.4 °F (9:35 am)37.4 °F (6:35 am)
Humidity71.8 %94 % (10:15 pm)38 % (2:15 pm)
Barometer30.30 in30.37 in (9:55 am)30.26 in (8:35 pm)
Wind Speed4.7 mph11.5 mph (11:15 am)
Wind Gust18.4 mph (1:35 pm)
Weather ElementAverage
Visibility6.9 mi
Wind DirectionESE (109.2 °)

Weather ElementTotal
Precipitation---
Heating Degree Days7.8 (Base 65)
Growing Degree Days7.2 (Base 50)
Averaged from 62 records on January 23, 2013
WEATHER CONDITIONS BREAKOUT
WIND DIRECTION BREAKOUT
WEATHER BY HOUR - JANUARY 23, 2013
[ °C ]   °F
Local TimeTemperatureDewpointHumidityBarometerVisibilityWind DirectionWind SpeedGust SpeedPrecipitationEventsConditions
12:55 AM46.4 °F44.6 °F93 %30.31 in0.2 miCalmFogFog
1:15 AM44.6 °F42.8 °F93 %30.31 in0.2 miCalmFogFog
1:55 AM46.4 °F44.6 °F93 %30.31 in0.2 miCalmFogFog
2:15 AM44.6 °F42.8 °F93 %30.31 in0.2 miCalmFogFog
2:35 AM44.6 °F42.8 °F93 %30.31 in0.2 miCalmFogFog
2:55 AM42.8 °F41.0 °F93 %30.32 in0.2 miCalmFogFog
3:15 AM42.8 °F41.0 °F93 %30.31 in0.2 miCalmFogFog
3:35 AM42.8 °F41.0 °F93 %30.31 in0.2 miCalmFogFog
3:55 AM42.8 °F41.0 °F93 %30.31 in0.5 miCalmFogFog
4:15 AM44.6 °F41.0 °F87 %30.31 in0.2 miCalmFogFog
4:35 AM42.8 °F41.0 °F93 %30.31 in0.2 miCalmFogFog
4:55 AM42.8 °F41.0 °F93 %30.31 in0.2 miCalmFogFog
5:15 AM42.8 °F41.0 °F93 %30.31 in0.2 miCalmFogFog
5:35 AM42.8 °F39.2 °F87 %30.32 in0.2 miCalmFogFog
5:55 AM42.8 °F39.2 °F87 %30.32 in0.2 miCalmFogFog
6:15 AM42.8 °F39.2 °F87 %30.32 in0.2 miCalmFogFog
6:35 AM41.0 °F37.4 °F87 %30.32 in3.0 miCalmOvercast
6:55 AM41.0 °F39.2 °F93 %30.32 in3.0 miCalmOvercast
7:15 AM41.0 °F39.2 °F93 %30.33 in0.2 miCalmFogFog
7:55 AM42.8 °F41.0 °F93 %30.34 in3.0 miCalmScattered Clouds
8:55 AM53.6 °F50.0 °F88 %30.36 in5.0 miCalmClear
9:35 AM60.8 °F55.4 °F82 %30.36 in10.0 miSSE (150°)4.6 mphClear
9:55 AM62.6 °F53.6 °F72 %30.37 in10.0 miSE (140°)4.6 mphClear
10:15 AM64.4 °F53.6 °F68 %30.37 in10.0 miSE (130°)8.1 mphClear
10:35 AM68.0 °F51.8 °F56 %30.37 in10.0 miSSE (160°)8.1 mphClear
10:55 AM69.8 °F50.0 °F49 %30.37 in10.0 miSSE (150°)6.9 mphClear
11:15 AM69.8 °F50.0 °F49 %30.36 in10.0 miSSE (160°)11.5 mphClear
11:35 AM69.8 °F50.0 °F49 %30.35 in10.0 miSSE (160°)9.2 mphClear
11:55 AM69.8 °F48.2 °F46 %30.34 in10.0 miSSE (160°)8.1 mphScattered Clouds
12:15 PM71.6 °F46.4 °F41 %30.33 in10.0 miSouth (190°)11.5 mphScattered Clouds
12:35 PM71.6 °F46.4 °F41 %30.32 in10.0 miSSE (160°)8.1 mphScattered Clouds
12:55 PM71.6 °F46.4 °F41 %30.31 in10.0 miSouth (170°)8.1 mphMostly Cloudy
1:15 PM71.6 °F46.4 °F41 %30.30 in10.0 miSouth (190°)9.2 mphMostly Cloudy
1:35 PM71.6 °F46.4 °F41 %30.30 in10.0 miSouth (190°)8.1 mph18.4 mphMostly Cloudy
1:55 PM71.6 °F46.4 °F41 %30.29 in10.0 miSSW (200°)11.5 mph17.3 mphMostly Cloudy
2:15 PM73.4 °F46.4 °F38 %30.29 in10.0 miSSW (200°)11.5 mphMostly Cloudy
2:35 PM73.4 °F46.4 °F38 %30.28 in10.0 miSSW (200°)6.9 mphMostly Cloudy
2:55 PM69.8 °F46.4 °F43 %30.28 in10.0 miSouth (180°)9.2 mphMostly Cloudy
3:15 PM69.8 °F46.4 °F43 %30.27 in10.0 miSouth (170°)10.4 mphMostly Cloudy
3:35 PM71.6 °F48.2 °F43 %30.28 in10.0 miSouth (170°)11.5 mphMostly Cloudy
3:55 PM71.6 °F46.4 °F41 %30.28 in10.0 miSouth (180°)8.1 mph16.1 mphMostly Cloudy
4:15 PM69.8 °F48.2 °F46 %30.28 in10.0 miSouth (170°)10.4 mphScattered Clouds
4:35 PM69.8 °F48.2 °F46 %30.28 in10.0 miSouth (170°)8.1 mphClear
4:55 PM68.0 °F50.0 °F52 %30.28 in10.0 miSouth (170°)8.1 mphClear
5:15 PM68.0 °F50.0 °F52 %30.28 in10.0 miSouth (170°)8.1 mphClear
5:35 PM64.4 °F50.0 °F59 %30.27 in10.0 miSouth (170°)6.9 mphClear
5:55 PM62.6 °F51.8 °F68 %30.27 in10.0 miSSE (160°)5.8 mphClear
6:15 PM62.6 °F51.8 °F68 %30.27 in10.0 miSSE (160°)5.8 mphClear
6:35 PM62.6 °F51.8 °F68 %30.27 in10.0 miSSE (150°)8.1 mphScattered Clouds
6:55 PM60.8 °F51.8 °F72 %30.27 in10.0 miSE (140°)4.6 mphScattered Clouds
7:15 PM59.0 °F51.8 °F77 %30.27 in10.0 miSE (140°)4.6 mphClear
7:35 PM59.0 °F51.8 °F77 %30.27 in10.0 miSE (140°)3.5 mphClear
7:55 PM59.0 °F53.6 °F82 %30.27 in10.0 miSSE (150°)4.6 mphClear
8:15 PM57.2 °F53.6 °F88 %30.27 in10.0 miSSE (160°)4.6 mphClear
8:35 PM57.2 °F53.6 °F88 %30.26 in10.0 miSSE (160°)3.5 mphClear
8:55 PM57.2 °F53.6 °F88 %30.26 in10.0 miSouth (170°)4.6 mphClear
9:15 PM57.2 °F53.6 °F88 %30.26 in10.0 miSSE (160°)3.5 mphClear
9:35 PM57.2 °F53.6 °F88 %30.26 in10.0 miSouth (170°)4.6 mphClear
9:55 PM57.2 °F53.6 °F88 %30.26 in10.0 miSouth (170°)3.5 mphClear
10:15 PM55.4 °F53.6 °F94 %30.27 in10.0 miSSE (160°)3.5 mphClear
10:35 PM55.4 °F53.6 °F94 %30.27 in10.0 miSSE (160°)4.6 mphClear
11:35 PM57.2 °F53.6 °F88 %30.27 in10.0 miSSE (160°)3.5 mphScattered Clouds
Hourly data recorded from KBMT, located miles away from Rose City, Texas







STORIES FROM OUR PARTNERS